Winfield, KS

7:32 PM CST on December 06, 2019 (GMT -0600)
Strother

Weather History for KWLD - October, 2019

Change the Weather History Date:

Friday, October 18, 2019

  Actual Average Record
Temperature  
Mean Temperature 60 °F -  
Max Temperature 73 °F 68 °F 93 °F (2005)
Min Temperature 48 °F 46 °F 33 °F (2013)
Degree Days  
Heating Degree Days 5    
Growing Degree Days 10 (Base 50)    
Moisture  
Dew Point 46 °F    
Average Humidity 60    
Maximum Humidity 86    
Minimum Humidity 37    
Precipitation  
Precipitation 0.00 in - - ()
Sea Level Pressure  
Sea Level Pressure 29.73 in    
Wind  
Wind Speed 12 mph ()    
Max Wind Speed 23 mph    
Max Gust Speed 36 mph    
Visibility 10.0 miles    
Events      
Averages and records for this station are not official NWS values.
T = Trace of Precipitation, MM = Missing Value Source: Averaged Metar Reports

Daily Weather History Graph

Daily Weather History Graph

Search for Another Location

Airport or City:

Astronomy

Oct. 18, 2019 Rise Set
Actual Time 7:38 AM CDT 6:47 PM CDT
Civil Twilight 7:12 AM CDT 7:13 PM CDT
Nautical Twilight 6:42 AM CDT 7:43 PM CDT
Astronomical Twilight 6:11 AM CDT 8:14 PM CDT
Moon 10:10 PM CDT (10/18) 12:07 PM CDT (10/18)
Length of Visible Light 12h 01m
Length of Day
11h 08m
Waning Gibbous, 78% of the Moon is Illuminated
Oct 18
Waning Gibbous
Oct 21
Last Quarter
Oct 27
New
Nov 4
First Quarter
Nov 12
Full

Hourly Weather History & Observations

Time (CDT) Temp. Dew Point Humidity Pressure Visibility Wind Dir Wind Speed Gust Speed Precip Events Conditions
12:54 AM 55.0 °F 44.1 °F 67% 29.82 in 10.0 mi South 11.5 mph - N/A   Clear
1:54 AM 54.0 °F 44.1 °F 69% 29.81 in 10.0 mi SSE 12.7 mph - N/A   Clear
2:54 AM 53.1 °F 44.1 °F 71% 29.82 in 10.0 mi South 12.7 mph - N/A   Clear
3:54 AM 52.0 °F 43.0 °F 71% 29.83 in 10.0 mi South 10.4 mph - N/A   Clear
4:54 AM 50.0 °F 44.1 °F 80% 29.83 in 10.0 mi South 9.2 mph - N/A   Clear
5:54 AM 51.1 °F 45.0 °F 80% 29.83 in 10.0 mi SSE 9.2 mph - N/A   Clear
6:54 AM 50.0 °F 45.0 °F 83% 29.82 in 10.0 mi SSE 9.2 mph - N/A   Clear
7:54 AM 48.9 °F 45.0 °F 86% 29.81 in 10.0 mi SSE 8.1 mph - N/A   Clear
8:54 AM 53.1 °F 46.0 °F 77% 29.81 in 10.0 mi SSE 16.1 mph 23.0 mph N/A   Clear
9:54 AM 57.0 °F 46.9 °F 69% 29.81 in 10.0 mi South 18.4 mph - N/A   Clear
10:54 AM 62.1 °F 46.9 °F 58% 29.78 in 10.0 mi South 19.6 mph 27.6 mph N/A   Clear
11:54 AM 66.0 °F 48.0 °F 52% 29.77 in 10.0 mi SSE 18.4 mph 26.5 mph N/A   Clear
12:54 PM 70.0 °F 50.0 °F 49% 29.73 in 10.0 mi South 18.4 mph 27.6 mph N/A   Clear
1:54 PM 70.0 °F 50.0 °F 49% 29.69 in 10.0 mi SSE 23.0 mph 32.2 mph N/A   Clear
2:54 PM 72.0 °F 48.9 °F 44% 29.66 in 10.0 mi SSE 23.0 mph 35.7 mph N/A   Clear
3:54 PM 72.0 °F 46.9 °F 41% 29.65 in 10.0 mi SSE 20.7 mph 32.2 mph N/A   Clear
4:54 PM 72.0 °F 44.1 °F 37% 29.64 in 10.0 mi SSE 19.6 mph 27.6 mph N/A   Clear
5:54 PM 69.1 °F 44.1 °F 40% 29.63 in 10.0 mi SSE 16.1 mph - N/A   Clear
6:54 PM 66.0 °F 43.0 °F 43% 29.64 in 10.0 mi SSE 12.7 mph 24.2 mph N/A   Clear
7:54 PM 63.0 °F 44.1 °F 50% 29.65 in 10.0 mi SE 10.4 mph - N/A   Clear
8:54 PM 62.1 °F 45.0 °F 53% 29.66 in 10.0 mi SSE 12.7 mph - N/A   Clear
9:54 PM 61.0 °F 45.0 °F 56% 29.65 in 10.0 mi SSE 13.8 mph - N/A   Clear
10:54 PM 60.1 °F 45.0 °F 57% 29.65 in 10.0 mi SSE 12.7 mph 21.9 mph N/A   Clear
11:54 PM 60.1 °F 45.0 °F 57% 29.65 in 10.0 mi SSE 19.6 mph 29.9 mph N/A   Clear